DW5750 Weather Reports


Display with metric or nautical units.
time (UTC)temp
F
wind
direction
speed
MPH
gust
MPH
rain 1hr
in
rain 24hr
in
rain mn
in
humidity
%
barometer
mb
20190319061632 0 0.0 0.0 0.00 0.00 0.00 1011.7
20190319060150 0 0.0 0.0 0.00 0.00 0.00 1011.9
20190319054612 0 0.0 0.0 0.00 0.00 0.00 1012.2
20190319053120 0 0.0 0.0 0.00 0.00 0.00 1012.4
20190319051614 0 0.0 0.0 0.00 0.00 0.00 1012.6
20190319050112 0 0.0 0.0 0.00 0.00 0.00 1012.7
20190319044637 76 79 0.0 2.0 0.00 0.00 0.00 93 1012.8
20190319043115 76 107 0.0 0.0 0.00 0.00 0.00 93 1012.9
20190319041621 77 84 0.0 0.0 0.00 0.00 0.00 92 1012.7
20190319040043 77 82 0.0 2.0 0.00 0.00 0.00 90 1012.7
20190319034604 77 120 0.0 0.0 0.00 0.00 0.00 90 1012.5
20190319033131 77 105 0.0 0.0 0.00 0.00 0.00 90 1012.2
20190319031554 77 99 0.0 0.0 0.00 0.00 0.00 90 1012.2
20190319030049 77 103 0.0 0.0 0.00 0.00 0.00 92 1012.0
20190319024626 77 109 0.0 0.0 0.00 0.00 0.00 91 1011.9
20190319021607 77 115 2.0 4.0 0.00 0.00 0.00 90 1011.3
20190319020045 77 113 2.0 3.0 0.00 0.00 0.00 90 1010.9
20190319014534 77 119 1.0 2.0 0.00 0.00 0.00 90 1010.8
20190319013026 77 93 0.0 0.0 0.00 0.00 0.00 90 1010.5
20190319011605 77 75 0.0 0.0 0.00 0.00 0.00 90 1010.2
20190319010021 76 76 0.0 0.0 0.00 0.00 0.00 90 1010.0
20190319004532 77 75 0.0 0.0 0.00 0.00 0.00 90 1009.6
20190319003026 77 80 0.0 1.0 0.00 0.00 0.00 91 1009.2
20190319001559 77 71 0.0 0.0 0.00 0.00 0.00 90 1009.2
20190319000101 77 110 0.0 2.0 0.00 0.00 0.00 91 1008.9
20190318233041 78 99 0.0 0.0 0.00 0.00 0.00 90 1008.6
20190318231518 78 101 0.0 3.0 0.00 0.00 0.00 90 1008.3
20190318230037 78 63 0.0 2.0 0.00 0.00 0.00 89 1008.2
20190318224513 79 113 1.0 3.0 0.00 0.00 0.00 86 1007.8
20190318223013 79 117 1.0 4.0 0.00 0.00 0.00 86 1007.8
20190318221516 79 143 3.0 5.0 0.00 0.00 0.00 85 1007.7
20190318220012 79 122 1.0 6.0 0.00 0.00 0.00 86 1007.7
20190318214507 79 113 3.0 6.0 0.00 0.00 0.00 85 1007.8
20190318213016 79 126 3.0 8.0 0.00 0.00 0.00 86 1007.9
20190318211505 79 136 6.0 10.0 0.00 0.00 0.00 85 1007.9
20190318210015 79 117 6.0 9.0 0.00 0.00 0.00 86 1008.0
20190318204724 80 120 3.0 8.0 0.00 0.00 0.00 82 1008.1
20190318203129 80 132 4.0 8.0 0.00 0.00 0.00 84 1008.3
20190318201722 80 110 4.0 8.0 0.00 0.00 0.00 82 1008.6
20190318200145 80 101 5.0 7.0 0.00 0.00 0.00 83 1008.8
20190318194734 80 104 5.0 11.0 0.00 0.00 0.00 82 1009.0
20190318193221 80 104 6.0 9.0 0.00 0.00 0.00 82 1009.2
20190318191657 81 103 6.0 10.0 0.00 0.00 0.00 80 1009.5
20190318190157 80 118 7.0 10.0 0.00 0.00 0.00 82 1009.8
20190318184637 81 111 8.0 10.0 0.00 0.00 0.00 80 1010.2
20190318183143 82 110 8.0 10.0 0.00 0.00 0.00 78 1010.4
20190318181654 81 87 5.0 11.0 0.00 0.00 0.00 80 1010.7
20190318180149 81 99 5.0 12.0 0.00 0.00 0.00 81 1010.8
20190318174710 81 125 9.0 14.0 0.00 0.00 0.00 80 1010.9
20190318173107 81 101 9.0 13.0 0.00 0.00 0.00 80 1011.0
20190318171635 82 104 9.0 13.0 0.00 0.00 0.00 79 1011.1
20190318170157 82 93 7.0 12.0 0.00 0.00 0.00 78 1011.3
20190318164643 82 101 6.0 11.0 0.00 0.00 0.00 79 1011.4
20190318161552 81 86 8.0 11.0 0.00 0.00 0.00 82 1011.3
20190318160053 80 113 5.0 9.0 0.00 0.00 0.00 85 1011.5
20190318151617 80 118 4.0 9.0 0.00 0.00 0.00 82 1011.5
20190318150216 80 118 3.0 7.0 0.00 0.00 0.00 82 1011.4
20190318144600 80 134 3.0 6.0 0.00 0.00 0.00 81 1011.2
20190318143057 80 138 1.0 6.0 0.00 0.00 0.00 82 1011.0
20190318141618 79 142 1.0 4.0 0.00 0.00 0.00 84 1010.9
20190318140100 79 176 2.0 4.0 0.00 0.00 0.00 83 1010.8
20190318134553 79 153 0.0 0.0 0.00 0.00 0.00 84 1010.6
20190318133039 78 170 0.0 0.0 0.00 0.00 0.00 85 1010.4
20190318131517 76 251 0.0 0.0 0.00 0.00 0.00 89 1010.2
20190318130016 75 253 0.0 0.0 0.00 0.00 0.00 91 1010.0
20190318124504 73 248 0.0 2.0 0.00 0.00 0.00 92 1009.9
20190318123118 0 0.0 0.0 0.00 0.00 0.00 1009.6
20190318121703 0 0.0 0.0 0.00 0.00 0.00 1009.3
20190318120110 0 0.0 0.0 0.00 0.00 0.00 1009.1
20190318114632 0 0.0 0.0 0.00 0.00 0.00 1009.0
20190318113124 0 0.0 0.0 0.00 0.00 0.00 1008.9
20190318111623 0 0.0 0.0 0.00 0.00 0.00 1008.7
20190318110140 0 0.0 0.0 0.00 0.00 0.00 1008.6
20190318104555 0 0.0 0.0 0.00 0.00 0.00 1008.5
20190318103023 0 0.0 0.0 0.00 0.00 0.00 1008.5
20190318101602 0 0.0 0.0 0.00 0.00 0.00 1008.6
20190318100055 0 0.0 0.0 0.00 0.00 0.00 1008.7
20190318094541 0 0.0 0.0 0.00 0.00 0.00 1008.8
20190318093026 0 0.0 0.0 0.00 0.00 0.00 1008.9
20190318091653 0 0.0 0.0 0.00 0.00 0.00 1008.9
20190318090211 0 0.0 0.0 0.00 0.00 0.00 1009.0
20190318084710 0 0.0 0.0 0.00 0.00 0.00 1009.1
20190318083131 0 0.0 0.0 0.00 0.00 0.00 1009.1
20190318081624 0 0.0 0.0 0.00 0.00 0.00 1009.1
20190318080106 0 0.0 0.0 0.00 0.00 0.00 1009.4
20190318074553 0 0.0 0.0 0.00 0.00 0.00 1009.6
20190318073103 0 0.0 0.0 0.00 0.00 0.00 1009.5
20190318071543 0 0.0 0.0 0.00 0.00 0.00 1009.8
20190318070042 0 0.0 0.0 0.00 0.00 0.00 1009.8
20190318064556 0 0.0 0.0 0.00 0.00 0.00 1010.1
20190318063018 0 0.0 0.0 0.00 0.00 0.00 1010.3